Temperature
18 18 17 17 16 16 15 15 15 14 14 14 13 13 13 12 12 12 12 11 11 11 11 11 11 11 10 10 10 10 10 10 10 10 11 11 11 11 11 11 12 12 12
19 18 18 17 17 16 16 15 15 15 14 14 13 13 13 13 13 12 12 12 12 11 11 11 11 11 10 10 10 10 10 10 10 10 10 11 11 11 11 11 11 11 12
19 18 18 17 17 16 16 15 15 15 14 14 14 14 13 13 13 12 12 12 12 12 11 11 11 11 11 10 10 10 10 10 10 10 10 10 10 10 10 11 11 11 11
19 19 18 18 17 17 16 16 15 15 15 15 14 14 14 13 13 13 12 12 12 12 11 11 11 11 11 10 10 10 10 10 10 9 10 10 10 10 10 10 10 11 11
19 19 18 18 17 17 16 16 16 16 15 15 14 14 14 13 13 13 13 12 12 12 12 11 11 11 11 10 10 10 10 10 9 9 9 9 10 10 10 10 10 10 10
20 19 19 18 17 17 17 16 16 16 15 15 15 14 14 14 13 13 13 12 12 12 12 12 11 11 11 10 10 10 10 9 9 9 9 9 10 9 9 9 9 9 10
20 19 19 18 17 17 17 16 16 16 16 15 15 15 14 14 14 13 13 12 12 12 12 12 12 11 11 10 10 10 10 9 9 9 9 9 9 9 9 9 9 9 9
20 19 19 18 18 17 17 16 16 16 16 15 15 15 14 14 14 13 13 12 12 12 12 12 11 11 11 10 10 10 10 10 9 9 9 9 9 9 9 8 8 8 9
19 19 19 18 18 17 17 17 16 16 16 15 15 15 14 14 14 13 13 12 12 12 12 12 12 11 11 11 10 10 10 10 10 9 9 9 9 9 8 8 8 8 8
19 19 18 18 17 17 17 16 16 16 15 15 15 14 14 14 14 13 13 12 12 12 12 12 12 12 11 11 10 10 10 10 10 9 9 9 9 9 8 8 8 8 8
18 18 17 17 17 16 16 16 15 15 15 14 14 14 14 14 14 13 13 12 12 12 12 12 12 12 11 11 10 10 10 10 9 9 9 9 9 9 9 8 8 8 8
17 17 17 16 16 16 15 15 15 14 14 14 14 14 14 14 13 13 13 12 12 12 12 12 12 11 11 11 11 10 10 9 9 9 9 9 9 9 9 8 8 8 8
16 16 16 15 15 15 15 14 14 14 13 13 13 13 13 13 13 13 13 12 12 12 12 12 12 11 11 11 10 10 10 9 9 9 9 9 9 9 8 8 8 8 8
16 15 15 15 14 14 14 14 13 13 13 13 12 12 13 13 13 12 12 12 12 12 12 12 11 11 11 11 10 10 10 10 9 9 9 9 9 8 8 8 8 8 8
14 14 14 14 13 13 13 13 12 12 12 12 11 11 11 12 12 12 12 12 12 12 11 11 11 11 11 11 11 10 10 10 9 9 9 9 9 8 8 8 8 8 8
13 13 13 13 12 12 12 12 12 11 11 11 11 11 11 11 11 11 11 11 11 11 11 11 11 11 11 11 10 10 10 10 9 9 9 8 8 8 8 8 8 8 8
12 12 12 11 11 11 11 11 11 11 11 11 11 10 10 11 11 11 11 11 11 11 11 11 11 11 11 10 10 10 10 10 9 9 9 8 8 8 8 8 8 8 8
11 11 11 10 10 10 10 10 10 10 10 10 10 10 10 10 10 10 10 10 10 11 11 11 11 11 10 10 10 10 10 9 9 9 9 8 8 8 8 8 8 8 8
10 10 10 10 10 9 9 9 9 9 9 9 9 9 10 10 10 10 10 10 10 10 10 10 10 10 10 10 10 10 9 9 9 8 8 8 8 8 8 8 7 7 7
10 10 9 9 9 9 9 9 8 8 8 8 8 8 9 9 9 9 9 9 9 9 9 9 10 10 10 10 9 9 9 9 8 8 8 8 8 8 7 7 7 7 7
9 9 9 9 9 8 8 8 8 8 7 7 8 8 8 8 8 8 8 8 9 9 9 9 9 9 9 9 9 9 8 8 8 8 8 8 8 8 7 7 7 7 7
9 9 9 8 8 8 8 7 7 7 7 7 7 7 7 7 7 8 8 8 8 8 8 8 8 9 9 9 8 8 8 8 8 8 7 7 7 7 7 7 7 7 7
9 9 8 8 8 7 7 7 7 7 6 6 6 7 7 7 7 7 7 7 8 8 8 8 8 8 8 8 8 8 8 8 8 7 7 7 7 7 7 7 7 7 7
8 8 8 7 7 7 6 6 6 6 6 6 6 6 6 6 6 7 7 7 7 7 7 8 8 8 8 8 8 7 7 7 7 7 7 7 7 7 7 7 7 7 7
8 7 7 7 6 6 6 6 5 5 5 5 5 5 5 5 6 6 6 6 7 7 7 7 7 7 7 7 7 7 7 7 7 7 6 6 6 6 7 7 7 7 7
7 6 6 6 5 5 5 5 5 5 4 4 4 4 4 5 5 5 6 6 6 6 6 7 7 7 7 7 7 7 7 7 7 6 6 6 6 6 6 6 6 6 6
Wind_Speed
10 9 9 8 8 7 7 7 7 6 6 6 6 5 5 5 4 4 5 4 5 5 4 5 6 5 4 4 4 4 5 5 6 6 4 4 4 6 7 8 8 8 8
11 10 10 8 8 8 8 8 7 7 7 7 6 5 6 5 5 5 6 6 6 6 6 6 7 5 5 5 4 5 6 7 7 8 5 4 5 6 6 6 7 7 8
10 10 9 9 9 10 9 8 7 7 7 6 6 7 7 6 6 6 7 7 7 7 7 7 7 6 7 6 6 6 6 6 7 7 7 4 5 4 5 5 6 5 7
10 11 11 11 11 11 9 8 8 8 8 8 7 8 7 7 7 7 7 7 8 8 8 8 8 8 9 8 7 8 7 6 6 7 7 6 6 5 4 5 5 4 5
11 12 12 11 10 9 9 9 8 8 9 8 7 7 7 7 7 8 8 8 8 9 8 8 9 10 12 10 8 8 7 7 6 7 7 6 6 5 5 4 5 6 5
12 12 10 9 9 9 9 8 8 8 8 7 8 8 8 8 10 12 10 8 8 9 10 9 9 10 12 13 13 13 11 9 9 8 8 9 10 8 6 6 5 5 5
11 9 9 9 9 9 9 8 9 9 8 8 9 9 10 11 13 13 13 10 10 10 10 10 9 9 10 9 10 12 12 13 14 11 12 12 11 9 7 8 7 7 8
9 8 8 8 8 7 7 8 8 7 7 8 9 9 10 12 14 14 14 11 11 11 12 12 11 11 10 10 9 10 10 11 11 11 12 13 12 11 9 9 9 8 8
9 9 9 9 8 8 8 9 7 6 7 8 7 9 10 12 14 15 13 8 10 12 12 12 12 13 14 13 10 11 12 11 11 14 15 15 15 15 11 7 7 7 8
9 8 8 8 9 9 9 8 6 6 8 8 9 9 10 12 13 15 13 8 10 11 10 11 14 15 15 13 11 11 13 13 10 8 8 10 10 11 12 11 10 9 8
4 4 4 6 7 7 6 5 5 6 6 7 9 9 10 12 14 15 14 9 10 11 10 10 10 15 17 16 14 12 15 13 9 9 9 9 8 8 8 9 10 11 11
4 3 4 4 5 4 5 5 5 6 6 7 8 9 9 10 12 14 16 16 14 11 12 11 11 14 15 15 13 14 16 12 8 8 9 10 10 10 9 9 10 12 13
3 2 2 2 3 3 4 4 4 4 5 6 7 9 9 8 9 15 17 17 17 13 12 15 15 14 13 12 14 15 12 9 9 9 11 11 11 10 9 7 8 10 12
2 0 0 1 2 3 3 3 4 5 6 7 7 8 9 8 8 8 9 10 12 13 13 13 14 14 12 12 10 10 9 9 10 11 11 11 9 8 9 8 7 7 7
2 1 1 1 2 3 3 4 5 6 6 7 8 8 9 10 12 13 10 9 9 9 7 6 7 7 8 9 9 9 8 8 10 10 10 10 9 9 9 8 7 7 7
3 2 2 2 2 2 3 5 7 9 12 13 14 13 11 14 17 18 17 17 16 12 8 8 10 10 11 11 10 9 9 9 10 9 9 10 9 9 9 8 7 8 9
3 2 2 2 3 3 4 5 7 8 9 12 14 15 15 17 18 18 17 15 13 9 8 11 11 11 11 10 10 10 9 9 8 9 9 9 9 9 9 9 8 9 9
3 3 3 3 3 4 5 5 6 8 9 9 10 14 16 16 17 17 14 7 6 6 9 11 12 11 11 10 10 10 9 8 8 8 9 9 9 9 9 9 9 10 10
3 3 3 3 4 5 5 6 6 8 8 9 10 11 13 13 13 12 7 6 8 9 9 10 11 10 10 10 10 9 9 8 8 8 8 9 8 8 9 9 9 11 11
3 5 5 4 5 5 5 6 7 8 8 9 10 11 10 9 8 8 5 7 8 9 9 10 10 10 9 9 9 8 8 8 8 8 8 8 8 8 10 10 10 9 9
4 5 7 6 5 6 6 7 7 8 8 9 10 11 12 10 10 11 9 8 9 9 9 8 9 9 9 8 8 9 9 8 8 8 8 8 8 8 8 9 9 9 9
4 5 5 6 6 6 7 7 7 8 9 11 10 11 13 9 9 10 9 9 9 8 8 7 7 8 8 8 7 8 8 8 7 7 7 7 7 7 8 8 8 9 9
4 6 6 6 6 8 8 8 8 9 10 10 11 11 10 9 10 10 10 9 8 7 6 6 7 7 6 6 6 6 7 7 6 6 6 6 7 7 7 8 10 10 10
5 6 7 7 7 7 8 9 9 10 10 11 10 10 10 10 10 11 9 8 7 6 5 4 5 5 6 4 3 4 5 4 4 5 7 7 7 7 7 8 9 10 10
5 6 6 7 7 8 8 9 9 10 10 10 10 10 11 11 10 9 8 7 7 6 5 4 3 3 4 4 4 3 3 4 4 5 5 6 8 9 9 9 9 9 9
5 5 6 6 6 7 8 9 9 10 10 10 10 10 10 10 10 9 8 7 6 5 5 4 3 4 4 3 3 3 3 4 5 6 6 6 8 8 9 8 10 9 9
Wind_Direction
188 188 185 189 190 188 193 203 204 204 203 205 210 214 222 227 220 213 228 232 236 247 245 239 248 245 244 239 225 222 221 217 249 270 258 268 275 281 295 299 296 292 292
188 185 190 189 186 193 203 208 203 207 209 209 211 218 227 231 225 224 238 238 236 247 251 246 253 251 246 245 236 235 234 224 236 268 274 268 260 271 279 286 289 287 283
182 184 188 191 193 202 208 206 203 209 212 212 212 222 230 233 232 233 236 244 244 246 248 246 252 248 252 249 243 245 246 243 233 251 271 267 266 266 276 279 281 281 284
183 187 194 200 202 206 207 204 205 208 213 217 218 225 232 236 238 241 240 244 248 250 249 247 249 245 248 251 251 249 248 250 246 251 266 270 269 266 258 269 281 278 284
185 193 203 203 201 202 204 207 208 209 217 219 222 232 235 237 241 240 240 243 247 254 255 251 249 249 248 246 248 249 245 248 251 255 264 270 269 263 258 256 270 281 279
188 200 202 196 199 204 208 208 208 214 218 219 226 232 238 241 242 240 237 242 245 249 257 258 256 257 258 256 252 249 239 241 248 251 259 261 266 263 259 256 262 274 280
188 195 192 193 201 208 208 206 213 218 219 225 232 233 240 246 247 249 246 241 245 248 250 255 259 256 249 254 258 261 256 246 237 242 254 258 262 259 255 258 250 250 258
187 193 191 191 202 203 201 211 218 217 220 229 236 236 242 250 248 249 250 247 248 250 248 247 251 256 252 246 255 261 263 260 250 245 247 253 255 256 248 254 261 262 262
194 200 198 195 200 201 208 217 216 214 224 228 235 236 241 252 250 248 246 246 249 252 251 246 243 250 250 240 244 254 264 267 258 246 243 249 253 252 246 247 249 250 265
207 208 201 196 201 209 216 218 213 215 229 233 240 240 240 250 253 249 243 241 249 255 256 249 239 239 246 238 235 242 255 262 264 265 257 258 258 258 246 235 239 246 256
197 183 185 196 207 215 217 217 218 223 233 238 247 251 247 249 255 252 243 232 241 251 254 254 247 234 237 238 232 236 243 250 258 259 265 267 266 260 254 241 233 234 243
145 166 193 202 212 215 213 223 223 224 236 247 254 265 262 255 252 254 247 237 234 242 250 252 249 239 234 236 235 236 241 245 251 254 259 263 263 262 258 250 240 236 238
135 180 214 219 221 217 215 227 232 230 241 255 257 266 272 268 259 252 252 249 240 237 247 246 246 245 240 242 241 239 239 239 238 245 252 257 258 259 261 260 254 246 247
118 184 219 231 252 246 238 235 239 244 249 257 261 266 271 274 273 267 259 259 252 244 248 250 248 248 243 243 247 244 236 232 231 241 250 257 260 258 257 254 257 255 256
61 23 352 305 280 277 269 253 249 247 244 254 264 266 273 277 272 262 262 264 257 250 243 243 243 242 243 244 244 243 237 231 233 238 244 252 256 256 257 250 246 244 244
50 14 352 325 309 300 297 298 269 262 271 264 259 261 267 262 271 276 272 264 259 251 235 242 243 243 244 246 246 244 238 233 233 234 238 243 249 253 257 252 242 243 249
43 6 346 334 325 318 311 306 307 303 289 282 275 273 266 270 274 276 275 273 262 228 226 240 242 243 243 242 241 241 243 240 234 232 236 240 243 247 250 252 248 245 247
25 3 349 327 319 311 303 298 296 300 305 302 293 284 282 280 279 278 276 267 257 222 229 236 241 242 241 240 240 240 243 245 239 236 237 240 242 244 247 249 248 247 249
1 340 329 319 313 307 304 302 300 297 294 296 300 300 294 292 286 280 260 243 255 252 242 241 243 245 244 241 241 240 239 240 241 237 238 240 241 241 245 247 249 248 248
319 320 324 314 312 312 310 308 306 304 302 300 300 301 306 308 302 298 272 258 259 260 255 250 248 246 245 244 242 239 238 238 240 239 241 241 239 239 244 248 249 248 246
305 313 320 316 307 305 306 305 305 305 304 303 299 297 296 296 293 292 287 274 264 261 259 256 254 249 243 240 239 238 238 240 240 240 241 242 242 242 245 248 249 250 250
297 300 303 301 302 303 304 303 303 304 306 304 304 303 300 297 294 293 291 284 275 267 261 256 255 251 241 235 235 237 238 241 243 242 244 247 247 248 249 249 249 249 249
295 298 300 299 300 302 304 305 305 304 305 305 305 306 306 304 300 296 293 288 283 280 270 257 254 255 250 239 233 234 237 239 241 241 244 251 253 254 253 252 252 253 250
301 299 301 303 306 307 307 307 306 306 306 307 307 307 307 306 303 300 298 297 296 292 285 271 259 256 257 253 246 240 242 247 248 244 244 251 256 257 254 252 252 254 253
307 306 306 307 309 310 309 309 311 311 310 310 309 310 311 310 308 307 305 302 300 299 297 291 277 266 267 268 264 260 253 257 258 258 252 251 255 256 255 255 254 257 253
317 317 316 315 316 315 314 314 314 314 314 314 314 314 315 315 313 312 312 310 309 307 308 307 309 307 298 289 285 287 274 267 263 259 256 255 255 255 254 252 254 253 256
Height
1528 1530 1532 1534 1535 1536 1537 1538 1538 1539 1539 1539 1540 1540 1540 1540 1540 1540 1540 1540 1539 1539 1539 1539 1538 1538 1538 1537 1537 1536 1535 1534 1532 1531 1531 1531 1530 1530 1530 1529 1529 1529 1529
1524 1527 1529 1531 1532 1533 1534 1535 1536 1536 1537 1537 1537 1537 1538 1538 1538 1537 1537 1537 1537 1536 1536 1536 1535 1535 1534 1534 1533 1532 1531 1530 1529 1527 1526 1526 1526 1525 1525 1524 1524 1523 1523
1520 1523 1525 1527 1528 1530 1531 1532 1533 1533 1534 1534 1534 1535 1535 1535 1535 1534 1534 1534 1533 1533 1532 1532 1531 1531 1530 1529 1528 1528 1527 1526 1525 1523 1521 1521 1520 1520 1519 1519 1519 1518 1518
1516 1519 1521 1523 1525 1526 1528 1529 1529 1530 1531 1531 1531 1531 1531 1531 1531 1531 1531 1530 1530 1529 1529 1528 1527 1526 1525 1525 1524 1523 1522 1521 1520 1518 1516 1515 1515 1515 1514 1513 1513 1513 1512
1511 1514 1516 1519 1521 1522 1524 1525 1526 1527 1527 1528 1528 1528 1528 1527 1527 1527 1527 1526 1526 1525 1524 1523 1522 1522 1520 1520 1518 1517 1517 1515 1514 1513 1511 1510 1509 1509 1509 1508 1507 1506 1506
1507 1510 1512 1515 1516 1518 1520 1521 1522 1523 1523 1524 1524 1524 1523 1523 1523 1523 1522 1522 1521 1520 1519 1518 1517 1516 1515 1514 1513 1512 1511 1510 1509 1508 1506 1505 1504 1504 1503 1503 1502 1501 1500
1502 1505 1508 1510 1512 1514 1516 1517 1518 1518 1519 1519 1519 1519 1519 1519 1518 1518 1517 1517 1516 1515 1514 1513 1512 1511 1510 1509 1508 1507 1506 1504 1503 1502 1500 1499 1499 1498 1498 1497 1496 1495 1494
1498 1501 1504 1506 1508 1510 1511 1512 1513 1514 1514 1514 1514 1514 1514 1513 1513 1513 1512 1511 1510 1509 1508 1507 1506 1505 1504 1503 1502 1500 1499 1498 1497 1496 1494 1493 1493 1493 1492 1491 1490 1488 1487
1495 1497 1500 1502 1504 1505 1506 1507 1508 1509 1509 1509 1509 1508 1508 1507 1508 1507 1506 1504 1503 1502 1501 1501 1500 1498 1498 1497 1495 1494 1492 1492 1491 1490 1488 1487 1487 1486 1486 1485 1483 1482 1480
1491 1494 1496 1498 1499 1500 1501 1502 1503 1503 1503 1503 1503 1502 1502 1501 1501 1501 1500 1498 1496 1495 1494 1493 1493 1492 1491 1490 1489 1487 1485 1485 1485 1483 1482 1481 1480 1479 1479 1478 1477 1476 1474
1488 1490 1492 1493 1495 1496 1497 1497 1497 1497 1497 1496 1496 1496 1495 1494 1494 1493 1492 1491 1489 1487 1486 1485 1485 1484 1484 1483 1482 1480 1479 1478 1477 1476 1475 1474 1473 1472 1472 1471 1470 1469 1468
1485 1487 1488 1489 1490 1491 1491 1492 1492 1492 1491 1490 1489 1488 1488 1487 1486 1485 1485 1483 1482 1480 1478 1477 1477 1477 1476 1475 1474 1473 1472 1471 1469 1468 1467 1466 1465 1465 1464 1463 1462 1461 1460
1482 1483 1484 1485 1486 1486 1486 1486 1486 1486 1485 1483 1482 1480 1479 1479 1478 1477 1476 1475 1473 1471 1470 1469 1469 1468 1468 1467 1466 1465 1464 1463 1462 1460 1458 1458 1457 1457 1456 1455 1454 1453 1452
1479 1480 1480 1481 1481 1481 1481 1481 1480 1479 1478 1477 1475 1473 1471 1470 1469 1468 1467 1466 1464 1463 1461 1460 1460 1459 1459 1458 1457 1457 1456 1455 1454 1452 1451 1450 1449 1448 1447 1447 1446 1445 1443
1477 1477 1477 1477 1477 1476 1476 1475 1474 1473 1472 1470 1468 1466 1464 1461 1461 1460 1458 1456 1455 1454 1452 1451 1450 1449 1449 1448 1448 1448 1447 1446 1445 1444 1443 1442 1441 1440 1439 1439 1438 1437 1436
1474 1474 1473 1473 1472 1471 1470 1469 1468 1467 1465 1463 1461 1459 1456 1454 1452 1450 1449 1447 1445 1444 1442 1440 1440 1440 1439 1439 1438 1438 1438 1437 1436 1435 1434 1433 1433 1432 1431 1431 1430 1429 1428
1472 1471 1471 1469 1468 1467 1465 1463 1460 1459 1458 1456 1454 1451 1448 1446 1443 1441 1439 1437 1436 1434 1432 1430 1430 1430 1429 1429 1429 1429 1428 1428 1428 1427 1426 1425 1425 1424 1423 1423 1422 1421 1420
1471 1470 1468 1466 1464 1463 1460 1458 1455 1452 1449 1447 1445 1443 1440 1437 1434 1432 1430 1428 1425 1424 1422 1421 1421 1421 1420 1420 1420 1420 1419 1419 1419 1418 1418 1417 1417 1417 1416 1415 1414 1414 1413
1470 1468 1466 1464 1461 1459 1456 1453 1450 1447 1444 1440 1437 1434 1432 1429 1426 1424 1421 1419 1417 1415 1414 1413 1412 1412 1411 1411 1411 1411 1411 1410 1410 1410 1410 1410 1409 1409 1408 1407 1407 1406 1406
1467 1465 1463 1460 1458 1455 1452 1449 1445 1442 1438 1434 1431 1428 1424 1421 1417 1415 1413 1410 1408 1406 1405 1404 1404 1403 1403 1403 1403 1403 1402 1402 1402 1402 1402 1402 1402 1401 1400 1400 1399 1399 1398
1464 1462 1460 1457 1454 1450 1447 1444 1440 1437 1433 1429 1425 1422 1419 1415 1411 1408 1405 1402 1400 1398 1397 1396 1396 1395 1395 1395 1395 1395 1395 1395 1395 1395 1395 1394 1394 1393 1393 1392 1392 1391 1390
1461 1458 1455 1452 1449 1446 1442 1439 1435 1431 1427 1423 1419 1415 1412 1409 1405 1402 1398 1395 1393 1391 1390 1389 1389 1388 1388 1387 1387 1387 1387 1387 1388 1388 1387 1387 1386 1386 1385 1385 1384 1384 1383
1457 1453 1450 1447 1444 1441 1437 1434 1430 1426 1422 1418 1413 1409 1405 1402 1398 1395 1391 1389 1387 1385 1384 1383 1382 1382 1382 1381 1381 1381 1381 1381 1381 1381 1380 1380 1379 1379 1378 1377 1377 1376 1376
1452 1448 1445 1442 1438 1435 1432 1428 1424 1420 1416 1412 1408 1403 1399 1395 1391 1388 1385 1383 1381 1379 1378 1377 1377 1376 1376 1376 1376 1376 1375 1375 1375 1374 1374 1373 1372 1372 1371 1370 1370 1369 1369
1446 1443 1440 1436 1433 1429 1426 1422 1419 1415 1411 1406 1402 1398 1393 1389 1385 1382 1380 1378 1376 1374 1373 1373 1372 1372 1372 1371 1371 1371 1370 1370 1369 1368 1367 1366 1365 1364 1364 1363 1363 1362 1362
1441 1438 1435 1431 1428 1425 1421 1417 1413 1409 1405 1401 1397 1393 1388 1384 1380 1378 1376 1373 1372 1370 1369 1369 1369 1368 1368 1367 1367 1366 1365 1364 1363 1362 1361 1360 1358 1358 1357 1356 1356 1355 1355